Weather History for KLTS - December, 2013

Change the Weather History Date:

Tuesday, December 10, 2013

  Actual Average Record
Temperature  
Mean Temperature 18 °F -  
Max Temperature 35 °F 52 °F 82 °F (1996)
Min Temperature 2 °F 28 °F 2 °F (2013)
Degree Days  
Heating Degree Days 46    
Moisture  
Dew Point 15 °F    
Average Humidity 82    
Maximum Humidity 88    
Minimum Humidity 69    
Precipitation  
Precipitation 0.00 in - - ()
Sea Level Pressure  
Sea Level Pressure 30.39 in    
Wind  
Wind Speed 5 mph (SSE)    
Max Wind Speed 13 mph    
Max Gust Speed -    
Visibility 10 miles    
Events      
Averages and records for this station are not official NWS values.
T = Trace of Precipitation, MM = Missing Value Source: NWS Daily Summary

Daily Weather History Graph

Daily Weather History Graph

Search for Another Location

Airport or City:

Trip Planner

Search our weather history database for the weather conditions in past years. The results will help you decide how hot, cold, wet, or windy it might be!

Date:

Astronomy

Dec. 10, 2013 Rise Set
Actual Time 7:33 AM CST 5:26 PM CST
Civil Twilight 7:05 AM CST 5:54 PM CST
Nautical Twilight 6:34 AM CST 6:25 PM CST
Astronomical Twilight 6:03 AM CST 6:56 PM CST
Moon 1:16 PM CST (12/10) 1:07 AM CST (12/10)
Length of Visible Light 10h 48m
Length of Day
9h 53m
Waxing Gibbous, 62% of the Moon is Illuminated
Dec 10
Waxing Gibbous
Dec 17
Full
Dec 25
Last Quarter
Jan 1
New
Jan 7
First Quarter

Hourly Weather History & Observations

Time (CST) Temp. Windchill Dew Point Humidity Pressure Visibility Wind Dir Wind Speed Gust Speed Precip Events Conditions
12:58 AM 14.0 °F 5.1 °F 10.0 °F 84% 30.49 in 10.0 mi NW 5.8 mph - N/A   Clear
1:58 AM 7.7 °F - 3.9 °F 85% 30.49 in 10.0 mi East 1.2 mph - N/A   Clear
2:58 AM 7.3 °F - 4.5 °F 88% 30.48 in 10.0 mi Calm Calm - N/A   Clear
3:58 AM 2.8 °F -6.6 °F -0.2 °F 87% 30.46 in 10.0 mi North 4.6 mph - N/A   Clear
4:58 AM 3.9 °F - 0.7 °F 86% 30.48 in 10.0 mi Calm Calm - N/A   Clear
5:58 AM 5.0 °F - 2.1 °F 88% 30.47 in 10.0 mi North 1.2 mph - N/A   Clear
6:58 AM 4.5 °F - 1.0 °F 86% 30.48 in 10.0 mi South 2.3 mph - N/A   Clear
7:58 AM 4.8 °F - 1.9 °F 88% 30.49 in 10.0 mi Calm Calm - N/A   Clear
8:58 AM 10.4 °F - 6.8 °F 85% 30.48 in 10.0 mi Calm Calm - N/A   Clear
9:58 AM 14.5 °F 7.1 °F 11.5 °F 88% 30.50 in 10.0 mi South 4.6 mph - N/A   Clear
10:58 AM 20.1 °F 11.3 °F 14.7 °F 80% 30.49 in 10.0 mi SSW 6.9 mph - N/A   Clear
11:58 AM 23.7 °F 16.6 °F 16.2 °F 73% 30.45 in 10.0 mi South 5.8 mph - N/A   Clear
12:58 PM 27.5 °F 21.1 °F 18.7 °F 69% 30.40 in 10.0 mi SSE 5.8 mph - N/A   Clear
1:58 PM 31.6 °F 23.7 °F 22.5 °F 69% 30.37 in 10.0 mi SSE 9.2 mph - N/A   Clear
2:58 PM 34.5 °F 25.7 °F 25.5 °F 70% 30.33 in 10.0 mi SSE 12.7 mph - N/A   Clear
3:58 PM 35.1 °F 27.4 °F 26.8 °F 72% 30.30 in 10.0 mi SSE 10.4 mph - N/A   Clear
4:58 PM 33.4 °F 26.6 °F 27.5 °F 79% 30.28 in 10.0 mi SE 8.1 mph - N/A   Clear
5:58 PM 29.1 °F 20.6 °F 25.0 °F 85% 30.28 in 10.0 mi SSE 9.2 mph - N/A   Clear
6:58 PM 27.3 °F 16.6 °F 22.6 °F 83% 30.29 in 10.0 mi SSE 12.7 mph - N/A   Clear
7:58 PM 28.6 °F 20.7 °F 24.4 °F 84% 30.26 in 10.0 mi SSE 8.1 mph - N/A   Clear
8:58 PM 28.4 °F 20.4 °F 23.9 °F 83% 30.26 in 10.0 mi SSE 8.1 mph - N/A   Clear
9:58 PM 27.9 °F 19.1 °F 23.4 °F 83% 30.24 in 10.0 mi SSE 9.2 mph - N/A   Clear
10:58 PM 27.5 °F 22.2 °F 23.4 °F 84% 30.25 in 10.0 mi SE 4.6 mph - N/A   Mostly Cloudy
11:58 PM 28.6 °F 22.4 °F 24.1 °F 83% 30.26 in 10.0 mi SSE 5.8 mph - N/A   Overcast